• Em Portugal
  • Lista de países
  • Para 7 dias
  • Temperatura da água
  • Mapas de satélite
  • Mapa do tempo
  • Widgets de tempo
  • user-avatar
    Iniciar Sessão

    Previsão horária em Ouahigouya

    Hoje, 21 Setembro, Quinta-feira

    Tempo Temperatura Precipitação Vento Pressão Humidade
    00:00 +34°C° 0 mm 3 m/s 728 mmHg 49%
    01:00 +33°C° 0,3 mm 4 m/s 728 mmHg 54%
    02:00 +32°C° 0,3 mm 5 m/s 728 mmHg 60%
    03:00 +30°C° 0,3 mm 6 m/s 728 mmHg 65%
    04:00 +30°C° 0 mm 5 m/s 728 mmHg 67%
    05:00 +30°C° 0 mm 5 m/s 728 mmHg 70%
    06:00 +29°C° 0 mm 4 m/s 728 mmHg 72%
    07:00 +30°C° 0 mm 5 m/s 729 mmHg 68%
    08:00 +33°C° 0 mm 5 m/s 729 mmHg 63%
    09:00 +34°C° 0 mm 5 m/s 730 mmHg 58%
    10:00 +35°C° 0 mm 5 m/s 730 mmHg 52%
    11:00 +37°C° 0 mm 4 m/s 730 mmHg 47%
    12:00 +38°C° 0 mm 4 m/s 729 mmHg 41%
    13:00 +38°C° 0 mm 3 m/s 729 mmHg 41%
    14:00 +38°C° 0 mm 3 m/s 728 mmHg 41%
    15:00 +38°C° 0 mm 2 m/s 727 mmHg 41%
    16:00 +37°C° 0,1 mm 2 m/s 727 mmHg 42%
    17:00 +37°C° 0,1 mm 2 m/s 727 mmHg 44%
    18:00 +35°C° 0,1 mm 1 m/s 727 mmHg 45%
    19:00 +35°C° 1,1 mm 1 m/s 728 mmHg 49%
    20:00 +34°C° 1,1 mm 1 m/s 728 mmHg 53%
    21:00 +33°C° 1,1 mm 1 m/s 728 mmHg 56%
    22:00 +32°C° 0,5 mm 2 m/s 728 mmHg 59%
    23:00 +31°C° 0,5 mm 2 m/s 728 mmHg 62%

    Amanhã, 22 Setembro, Sexta-feira

    Tempo Temperatura Precipitação Vento Pressão Humidade
    00:00 +31°C° 0,5 mm 3 m/s 729 mmHg 66%
    01:00 +30°C° 1 mm 3 m/s 728 mmHg 67%
    02:00 +30°C° 1 mm 3 m/s 728 mmHg 68%
    03:00 +29°C° 1 mm 4 m/s 728 mmHg 70%
    04:00 +29°C° 0,2 mm 4 m/s 729 mmHg 71%
    05:00 +29°C° 0,2 mm 3 m/s 729 mmHg 72%
    06:00 +28°C° 0,2 mm 3 m/s 730 mmHg 74%
    07:00 +29°C° 1,6 mm 3 m/s 730 mmHg 71%
    08:00 +29°C° 1,6 mm 3 m/s 730 mmHg 69%
    09:00 +30°C° 1,6 mm 3 m/s 731 mmHg 67%
    10:00 +31°C° 0,2 mm 2 m/s 730 mmHg 63%
    11:00 +31°C° 0,2 mm 2 m/s 730 mmHg 59%
    12:00 +32°C° 0,2 mm 1 m/s 730 mmHg 55%
    13:00 +32°C° 0,2 mm 2 m/s 729 mmHg 55%
    14:00 +31°C° 0,2 mm 2 m/s 729 mmHg 55%
    15:00 +31°C° 0,2 mm 2 m/s 728 mmHg 55%
    16:00 +31°C° 0 mm 2 m/s 729 mmHg 57%
    17:00 +31°C° 0 mm 2 m/s 729 mmHg 58%
    18:00 +30°C° 0 mm 2 m/s 729 mmHg 60%
    19:00 +30°C° 0,1 mm 2 m/s 730 mmHg 62%
    20:00 +29°C° 0,1 mm 2 m/s 730 mmHg 65%
    21:00 +29°C° 0,1 mm 2 m/s 731 mmHg 67%
    22:00 +29°C° 0 mm 2 m/s 731 mmHg 68%
    23:00 +29°C° 0 mm 2 m/s 730 mmHg 68%

    Depois de amanhã, 23 Setembro, Sábado

    Tempo Temperatura Precipitação Vento Pressão Humidade
    00:00 +28°C° 0 mm 2 m/s 730 mmHg 69%
    01:00 +28°C° 0 mm 3 m/s 730 mmHg 71%
    02:00 +27°C° 0 mm 3 m/s 730 mmHg 73%
    03:00 +27°C° 0 mm 4 m/s 730 mmHg 75%
    04:00 +26°C° 0 mm 4 m/s 730 mmHg 78%
    05:00 +26°C° 0 mm 4 m/s 730 mmHg 80%
    06:00 +26°C° 0 mm 4 m/s 731 mmHg 82%
    07:00 +27°C° 0 mm 4 m/s 731 mmHg 77%
    08:00 +28°C° 0 mm 5 m/s 732 mmHg 71%
    09:00 +29°C° 0 mm 5 m/s 732 mmHg 65%
    10:00 +32°C° 0 mm 5 m/s 732 mmHg 59%
    11:00 +33°C° 0 mm 4 m/s 732 mmHg 53%
    12:00 +35°C° 0 mm 4 m/s 731 mmHg 47%
    13:00 +36°C° 0 mm 4 m/s 731 mmHg 44%
    14:00 +36°C° 0 mm 3 m/s 730 mmHg 42%
    15:00 +37°C° 0 mm 2 m/s 729 mmHg 39%
    16:00 +36°C° 0 mm 2 m/s 729 mmHg 41%
    17:00 +36°C° 0 mm 2 m/s 730 mmHg 42%
    18:00 +35°C° 0 mm 2 m/s 730 mmHg 44%
    19:00 +35°C° 0 mm 3 m/s 730 mmHg 48%
    20:00 +34°C° 0 mm 3 m/s 731 mmHg 52%
    21:00 +33°C° 0 mm 4 m/s 731 mmHg 56%
    22:00 +32°C° 0 mm 4 m/s 731 mmHg 60%
    23:00 +30°C° 0 mm 4 m/s 731 mmHg 63%

    24 Setembro, Domingo

    Tempo Temperatura Precipitação Vento Pressão Humidade
    00:00 +29°C° 0 mm 4 m/s 731 mmHg 67%
    01:00 +29°C° 0 mm 4 m/s 730 mmHg 68%
    02:00 +29°C° 0 mm 4 m/s 730 mmHg 69%
    03:00 +28°C° 0 mm 4 m/s 729 mmHg 70%
    04:00 +28°C° 0 mm 5 m/s 730 mmHg 71%
    05:00 +28°C° 0 mm 5 m/s 730 mmHg 73%
    06:00 +27°C° 0 mm 5 m/s 730 mmHg 74%
    07:00 +29°C° 0 mm 5 m/s 731 mmHg 69%
    08:00 +30°C° 0 mm 5 m/s 731 mmHg 65%
    09:00 +32°C° 0 mm 4 m/s 732 mmHg 60%
    10:00 +34°C° 0 mm 4 m/s 731 mmHg 54%
    11:00 +35°C° 0 mm 4 m/s 731 mmHg 48%
    12:00 +37°C° 0 mm 4 m/s 730 mmHg 42%
    13:00 +38°C° 0 mm 4 m/s 730 mmHg 39%
    14:00 +40°C° 0 mm 4 m/s 729 mmHg 37%
    15:00 +39°C° 0 mm 3 m/s 728 mmHg 34%
    16:00 +39°C° 0 mm 3 m/s 728 mmHg 35%
    17:00 +38°C° 0 mm 3 m/s 728 mmHg 36%
    18:00 +38°C° 0 mm 3 m/s 728 mmHg 38%
    19:00 +37°C° 0 mm 3 m/s 729 mmHg 39%
    20:00 +36°C° 0 mm 3 m/s 729 mmHg 41%
    21:00 +36°C° 0 mm 3 m/s 729 mmHg 42%
    22:00 +35°C° 0,3 mm 3 m/s 729 mmHg 44%
    23:00 +35°C° 0,3 mm 3 m/s 729 mmHg 46%

    25 Setembro, Segunda-feira

    Tempo Temperatura Precipitação Vento Pressão Humidade
    00:00 +34°C° 0,3 mm 4 m/s 728 mmHg 48%
    01:00 +33°C° 0 mm 4 m/s 728 mmHg 50%
    02:00 +33°C° 0 mm 4 m/s 728 mmHg 52%
    03:00 +32°C° 0 mm 4 m/s 728 mmHg 54%
    04:00 +32°C° 0 mm 4 m/s 728 mmHg 56%
    05:00 +30°C° 0 mm 4 m/s 728 mmHg 59%
    06:00 +30°C° 0 mm 4 m/s 729 mmHg 61%
    07:00 +30°C° 0 mm 5 m/s 729 mmHg 59%
    08:00 +32°C° 0 mm 5 m/s 730 mmHg 58%
    09:00 +33°C° 0 mm 6 m/s 730 mmHg 56%
    10:00 +35°C° 0 mm 6 m/s 730 mmHg 51%
    11:00 +38°C° 0 mm 6 m/s 729 mmHg 45%
    12:00 +39°C° 0 mm 6 m/s 729 mmHg 40%
    13:00 +40°C° 0 mm 6 m/s 728 mmHg 37%
    14:00 +41°C° 0 mm 5 m/s 727 mmHg 34%
    15:00 +42°C° 0 mm 5 m/s 727 mmHg 31%
    16:00 +41°C° 0 mm 4 m/s 727 mmHg 32%
    17:00 +39°C° 0 mm 3 m/s 727 mmHg 33%
    18:00 +38°C° 0 mm 3 m/s 727 mmHg 34%
    19:00 +37°C° 0 mm 3 m/s 727 mmHg 37%
    20:00 +36°C° 0 mm 3 m/s 728 mmHg 41%
    21:00 +35°C° 0 mm 4 m/s 728 mmHg 44%
    22:00 +35°C° 0 mm 4 m/s 728 mmHg 47%
    23:00 +34°C° 0 mm 4 m/s 728 mmHg 50%

    26 Setembro, Terça-feira

    Tempo Temperatura Precipitação Vento Pressão Humidade
    00:00 +34°C° 0 mm 5 m/s 728 mmHg 53%
    01:00 +33°C° 0 mm 5 m/s 727 mmHg 57%
    02:00 +32°C° 0 mm 5 m/s 727 mmHg 60%
    03:00 +32°C° 0 mm 5 m/s 727 mmHg 63%
    04:00 +30°C° 0 mm 5 m/s 727 mmHg 65%
    05:00 +30°C° 0 mm 4 m/s 727 mmHg 67%
    06:00 +29°C° 0 mm 4 m/s 727 mmHg 69%
    07:00 +30°C° 0 mm 4 m/s 728 mmHg 64%
    08:00 +33°C° 0 mm 4 m/s 728 mmHg 58%
    09:00 +34°C° 0 mm 5 m/s 729 mmHg 53%
    10:00 +36°C° 0 mm 5 m/s 728 mmHg 47%
    11:00 +39°C° 0 mm 5 m/s 728 mmHg 41%
    12:00 +40°C° 0 mm 5 m/s 727 mmHg 35%
    13:00 +41°C° 0 mm 4 m/s 727 mmHg 32%
    14:00 +41°C° 0 mm 4 m/s 726 mmHg 30%
    15:00 +42°C° 0 mm 3 m/s 726 mmHg 27%
    16:00 +40°C° 0 mm 3 m/s 726 mmHg 28%
    17:00 +39°C° 0 mm 3 m/s 726 mmHg 30%
    18:00 +39°C° 0 mm 3 m/s 726 mmHg 31%
    19:00 +38°C° 0,1 mm 3 m/s 727 mmHg 34%
    20:00 +37°C° 0,1 mm 3 m/s 727 mmHg 38%
    21:00 +36°C° 0,1 mm 3 m/s 727 mmHg 41%
    22:00 +35°C° 0 mm 4 m/s 727 mmHg 44%
    23:00 +35°C° 0 mm 4 m/s 727 mmHg 46%
    Mostrar mais